Regional Weather Roundup
Issued by NWS

Home | Current Version | Previous Version | Text Only | Print | Product List | Glossary Off
Versions: 1 2 3 4 5 6 7 8 9 10 11 12 13 14 15 16 17 18 19 20 21 22 23 24 25 26 27 28 29 30 31 32 33 34 35 36 37 38 39 40 41 42 43 44 45 46 47 48 49 50

000
ASUS43 KIND 221909
RWRIN

WEATHER ROUNDUP FOR INDIANA
NATIONAL WEATHER SERVICE INDIANAPOLIS IN
300 PM EDT WED OCT 22 2014

NOTE: "FAIR" INDICATES FEW OR NO CLOUDS BELOW 12,000 FEET WITH NO
SIGNIFICANT WEATHER AND/OR OBSTRUCTIONS TO VISIBILITY.

* - STATION DOES NOT REPORT WEATHER SUCH AS PRECIPITATION OR FOG.

+ - STATION NOT QUALITY CONTROLLED BY THE NATIONAL WEATHER SERVICE.
    USE DATA WITH CAUTION...ESPECIALLY DEWPOINT AND RELATIVE
    HUMIDITY OBSERVATIONS.

INZ001>003-010>013-019-020-222000-
NORTHWEST INDIANA

CITY           SKY/WX    TMP DP  RH WIND       PRES   REMARKS
GARY /AIRPORT/ SUNNY     54  36  50 NE8       30.34F
KNOX *+        SUNNY     54  30  40 CALM      30.30F
LA PORTE +     SUNNY     56  31  38 NE6       30.32F
MICHIGAN CITY+ SUNNY     52  34  50 N9        30.32F
MONTICELLO +   SUNNY     55  36  47 CALM      30.30F
RENSSELAER +   SUNNY     55  32  41 N5        30.31F
VALPARAISO     SUNNY     56  33  42 CALM      30.31F

$$

LMZ046-743>745-222000-
SOUTHERN LAKE MICHIGAN

STATION/POSITION TIME  TEMP WIND        PRES
                       AIR  DIR/SP/G
                 (UTC) (F)  (DEG/KT/KT) (MB)
MICHIGAN CITY    1900   48  350/ 10/ 12   N/A

$$

INZ004-005-014>016-021>024-222000-
NORTH CENTRAL INDIANA

CITY           SKY/WX    TMP DP  RH WIND       PRES   REMARKS
GOSHEN         MOSUNNY   49  40  71 E9        30.32F
LOGANSPORT +   SUNNY     57  36  44 N3        30.31F HAZE
PERU/GRISSOM   SUNNY     56  43  63 VRB5      30.29F
ROCHESTER +    SUNNY     57  36  44 N6        30.30F HAZE
SOUTH BEND     SUNNY     55  32  41 CALM      30.33F
WARSAW +       SUNNY     52  39  62 N5        30.32S

$$

INZ006>009-017-018-025>027-222000-
NORTHEAST INDIANA

CITY           SKY/WX    TMP DP  RH WIND       PRES   REMARKS
ANGOLA *+      CLOUDY    45  30  57 E3        30.32F
AUBURN +       CLOUDY    48  37  66 N6        30.32F
FORT WAYNE     MOSUNNY   51  40  65 NE3       30.32F
HUNTINGTON +   MOSUNNY   55  42  61 CALM      30.30F

$$

INZ028-029-035-036-043>045-051>053-222000-
WEST CENTRAL INDIANA

CITY           SKY/WX    TMP DP  RH WIND       PRES   REMARKS
GREENCASTLE +  SUNNY     55  41  58 NE6       30.29F
LAFAYETTE      SUNNY     55  38  52 VRB7      30.30F
TERRE HAUTE    SUNNY     59  40  49 VRB6      30.29F

$$

INZ030>032-037>040-046>048-054>057-064-065-222000-
CENTRAL INDIANA

CITY           SKY/WX    TMP DP  RH WIND       PRES   REMARKS
ANDERSON       MOSUNNY   54  37  54 N9        30.30F
CP ATTERBURY + SUNNY     55  41  58 E8        30.29F
FRANKFORT +    SUNNY     57  40  53 N3        30.31F
GREENWOOD *+   MOSUNNY   55  37  50 N3        30.29
INDIANAPOLIS   MOSUNNY   55  40  56 NE7       30.28F
-EAGLE CREEK   SUNNY     56  40  55 VRB6      30.29F
KOKOMO *+      SUNNY     57  41  54 N5        30.30F
MARION +       MOSUNNY   54  38  55 CALM      30.30F
MT COMFORT *+  SUNNY     55  32  41 N3        30.29F
SHELBYVILLE    SUNNY     57  40  52 NE12      30.28F
ZIONSVILLE +   SUNNY     56  38  52 E7        30.30F

$$

INZ033-034-041-042-049-050-058-059-222000-
EAST CENTRAL INDIANA

CITY           SKY/WX    TMP DP  RH WIND       PRES   REMARKS
MUNCIE         MOSUNNY   55  41  59 NE6       30.29F

$$

INZ060-061-067>069-081>083-085>088-222000-
SOUTHWEST INDIANA

CITY           SKY/WX    TMP DP  RH WIND       PRES   REMARKS
EVANSVILLE     SUNNY     61  40  45 VRB7      30.27F
HUNTINGBURG *+ SUNNY     59  41  51 E8        30.27F
WASHINGTON +   SUNNY     58  41  53 E3        30.27F

$$

INZ062-063-066-070>080-084-089>092-222000-
SOUTH CENTRAL AND SOUTHEAST INDIANA

CITY           SKY/WX    TMP DP  RH WIND       PRES   REMARKS
BLOOMINGTON    SUNNY     59  41  51 NE7       30.27F
SEYMOUR +      SUNNY     59  41  51 N8        30.27

$$




USA.gov is the U.S. government's official web portal to all federal, state and local government web resources and services.